Flag for Germany Weather past 2 weeks in Neuburg an der Donau, Bavaria, Germany

Now
41 °F

Light rain. Overcast.


Feels Like: 35 °F
Forecast: 35 / 51 °F
Wind: 10 mph from West

Location: Neuburg / Donau

Current Time: Mar 27, 2015 at 8:23:11 AM

Latest Report: Mar 27, 2015 at 7:20 AM


Visibility: 4 mi

Pressure: 29.98 "Hg

Humidity: 87%

Dew point: 37 °F

Location of Neuburg an der DonauLocation

Historic Weather in Neuburg an der Donau — Graph

°F

Neuburg an der Donau temperature yesterday

Maximum temperature yesterday: 48 °F (at 12:20 AM)
Minimum temperature yesterday: 41 °F (at 8:20 AM)
Average temperature yesterday: 43 °F

Past Weeks' High & Low Weather Summary

 TemperatureHumidityPressure
High63 °F (Mar 17, 3:20 PM)100% (Mar 21, 6:20 AM)30.39 "Hg (Mar 21, 6:20 AM)
Low25 °F (Mar 21, 6:20 AM)31% (Mar 20, 5:20 PM)29.56 "Hg (Mar 25, 1:20 PM)
Average42 °F69%30.07 "Hg
* Reported Mar 12 6:20 AM — Mar 27 6:20 AM, Neuburg an der Donau, Weather by CustomWeather, © 2015

Note: Actual official high and low records may vary slightly from our data, if they occured in-between our weather recording intervals... More about our weather records

Advertising

Neuburg an der Donau weather history for previous 24 hours

 ConditionsComfort  
Time TempWeatherWind HumidityBarometerVisibility
6:20 AM
Fri, Mar 27
41 °FLight rain. Partly sunny.8 mph87%29.95 "HgN/A
5:20 AM41 °FQuite cool.10 mph87%29.92 "HgN/A
4:20 AM41 °FQuite cool.10 mph87%29.89 "HgN/A
3:20 AM41 °FQuite cool.6 mph87%29.89 "HgN/A
2:20 AM39 °FChilly.5 mph93%29.89 "HgN/A
1:20 AMN/A3 mphN/AN/AN/A
12:20 AM41 °FQuite cool.9 mph87%29.86 "HgN/A
11:20 PM
Thu, Mar 26
41 °FQuite cool.6 mph93%29.86 "HgN/A
10:20 PM41 °FQuite cool.3 mph93%29.83 "HgN/A
9:20 PM41 °FQuite cool.3 mph93%29.83 "HgN/A
8:20 PM41 °FQuite cool.3 mph93%29.83 "HgN/A
7:20 PM43 °FQuite cool.5 mph81%29.83 "HgN/A
6:20 PM43 °FQuite cool.6 mph81%29.83 "HgN/A
5:20 PM43 °FDrizzle. Mostly cloudy.6 mph81%29.80 "Hg4 mi
4:20 PM45 °FMostly cloudy.5 mph76%29.80 "Hg4 mi
3:20 PM43 °FOvercast.7 mph81%29.80 "Hg4 mi
2:20 PM43 °FFog.10 mph81%29.80 "Hg3 mi
1:20 PM43 °FFog.12 mph87%29.80 "Hg3 mi
12:20 PM43 °FFog.10 mph81%29.80 "Hg3 mi
11:20 AM43 °FFog.9 mph81%29.80 "Hg3 mi
10:20 AM43 °FFog.12 mph81%29.80 "Hg3 mi
9:52 AM43 °FFog.10 mph81%29.80 "Hg2 mi
9:20 AM43 °FFog.12 mph81%29.77 "Hg2 mi
8:20 AM41 °FFog.12 mph87%29.77 "Hg2 mi
Weather by CustomWeather, © 2015

See weather overviewHow to use our weather pages